Home > Weather > Charlotte Amalie > Past weeks

Flag for US Virgin Islands Weather for the Past 2 Weeks in Charlotte Amalie, US Virgin Islands

Now
77 °F

Clear.


Feels Like: 79 °F
Forecast: N/A
Wind: 10 mph from Southeast

Location: Cyril E. King International Airport

Current Time: May 1, 2016 at 7:37:33 PM

Latest Report: May 1, 2016 at 6:53 PM


Visibility: 10 mi

Pressure: 29.99 "Hg

Humidity: 82%

Dew Point: 71 °F

Location of Charlotte AmalieLocation

Historic Weather in Charlotte Amalie — Graph

°F

Charlotte Amalie Temperature Yesterday

Maximum temperature yesterday: 83 °F (at 12:53 AM)
Minimum temperature yesterday: 75 °F (at 10:53 AM)
Average temperature yesterday: 80 °F

High & Low Weather Summary for the Past Weeks

 TemperatureHumidityPressure
High88 °F (Apr 21, 12:53 PM)91% (Apr 23, 7:53 AM)30.06 "Hg (Apr 23, 7:53 AM)
Low75 °F (Apr 30, 10:53 AM)51% (Apr 21, 10:53 AM)29.83 "Hg (Apr 26, 2:53 AM)
Average82 °F75%29.94 "Hg
* Reported Apr 16 5:53 PM — May 1 5:53 PM, Charlotte Amalie, Weather by CustomWeather, © 2016

Note: Actual official high and low records may vary slightly from our data, if they occured in-between our weather recording intervals... More about our weather records

Advertising

Charlotte Amalie Weather History for the Previous 24 Hours

Scroll right to see more
 ConditionsComfort  
Time TempWeatherWind HumidityBarometerVisibility
5:53 PM
Sun, May 1
77 °FLight rain. Cloudy.8 mph88%29.99 "Hg10 mi
5:16 PM77 °FCloudy.17 mph90%29.99 "Hg10 mi
4:53 PM78 °FMostly cloudy.23 mph87%29.98 "Hg9 mi
4:12 PM80 °FOvercast.13 mph81%29.97 "Hg10 mi
3:53 PM80 °FMostly cloudy.12 mph79%29.97 "Hg10 mi
2:53 PM81 °FLight rain. Broken clouds.15 mph65%29.97 "Hg10 mi
1:53 PM81 °FPassing clouds.12 mph69%29.97 "Hg10 mi
12:53 PM79 °FBroken clouds.16 mph74%29.98 "Hg10 mi
12:28 PM79 °FPartly sunny.20 mph79%29.99 "Hg10 mi
11:53 AM81 °FScattered clouds.20 mph74%30.00 "Hg10 mi
10:53 AM81 °FScattered clouds.15 mph74%29.99 "Hg10 mi
9:53 AM82 °FScattered clouds.8 mph70%29.98 "Hg10 mi
8:53 AM81 °FPartly sunny.9 mph69%29.98 "Hg10 mi
7:53 AM80 °FPartly sunny.7 mph76%29.96 "Hg10 mi
6:53 AM78 °FOvercast.7 mph79%29.94 "Hg10 mi
5:53 AM80 °FBroken clouds.9 mph81%29.92 "Hg10 mi
4:53 AM78 °FClear.No wind84%29.90 "Hg10 mi
3:53 AM77 °FPartly cloudy.5 mph88%29.90 "Hg10 mi
2:53 AM79 °FClear.5 mph79%29.91 "Hg10 mi
1:53 AM78 °FPassing clouds.5 mph82%29.92 "Hg10 mi
12:53 AM78 °FPassing clouds.3 mph82%29.94 "Hg10 mi
11:53 PM
Sat, Apr 30
78 °FPassing clouds.6 mph82%29.95 "Hg10 mi
10:53 PM77 °FOvercast.5 mph85%29.96 "Hg10 mi
9:53 PM81 °FPassing clouds.8 mph74%29.95 "Hg10 mi
8:53 PM79 °FClear.3 mph74%29.93 "Hg10 mi
7:53 PM80 °FClear.10 mph76%29.92 "Hg10 mi
Weather by CustomWeather, © 2016

See weather overviewHow to use our weather pages